Weerstation Grootegast  Weerstation Grootegast


Weather Underground Historische gegevens

Dagelijkse Samenvatting oktober 23, 2018 Eenheden:  Metrisch    Engels   Beide
« Vorige Dag
Volgende Dag »
Dagelijkse Wekelijkse Maandelijkse Jaarlijkse Aangepaste
  Huidig: Hoog: Laag: Gemiddeld:
Temperatuur: -11.1 °C -17.8 °C -13.7 °C -12.2 °C
Dauwpunt: -13.3 °C -17.8 °C -15.9 °C -14.3 °C
Vochtigheid: 76 % Humidity % 75 % 76 %
Wind snelheid: 38.8 km/h 0 km/h 3.1 km/h 22.4 km/h
Windvlaag: 23.3 km/h 0 km/h - -
Wind:West - - WSW
Luchtdruk: 34567.7 hPa 0 hPa 34567.7 hPa -
Neerslag: 0 mm      
Historical Graphs
 
 
Tabel voor oktober 23, 2018
Tijd Temperatuur Dauwpunt Luchtdruk Wind Wind snelheid Windvlaag Vochtigheid Regenval per uur
-17.8 °C -17.8 °C 0 hPa Calm     Humidity % 0 mm
00:04 -13.7 °C -15.9 °C 34906.3 hPa SW 6.8 km/h 3.1 km/h 75 % 0 mm
00:07 -13.7 °C -15.9 °C 34906.3 hPa SW 6 km/h 4.7 km/h 75 % 0 mm
00:19 -13.7 °C -15.9 °C 34906.3 hPa NNW 6 km/h 1.3 km/h 75 % 0 mm
00:24 -13.7 °C -15.9 °C 34906.3 hPa SSW 9 km/h 6.3 km/h 75 % 0 mm
00:29 -13.7 °C -15.9 °C 34872.4 hPa SW 6 km/h 5.6 km/h 76 % 0 mm
00:34 -13.6 °C -15.8 °C 34872.4 hPa SE 9 km/h 8 km/h 76 % 0 mm
00:39 -13.6 °C -15.8 °C 34872.4 hPa West 3.1 km/h 0.5 km/h 76 % 0 mm
00:44 -13.6 °C -15.8 °C 34838.6 hPa East 6 km/h 3.1 km/h 76 % 0 mm
00:49 -13.6 °C -15.8 °C 34838.6 hPa ENE 4.2 km/h 0.5 km/h 76 % 0 mm
00:54 -13.6 °C -15.8 °C 34838.6 hPa NE 3.1 km/h 1.8 km/h 76 % 0 mm
00:59 -13.6 °C -15.8 °C 34804.7 hPa West 15 km/h 4.2 km/h 76 % 0 mm
01:04 -13.6 °C -15.8 °C 34804.7 hPa WSW 6 km/h 4.2 km/h 76 % 0 mm
01:09 -13.6 °C -15.8 °C 34804.7 hPa WSW 9 km/h 6.8 km/h 76 % 0 mm
01:14 -13.5 °C -15.7 °C 34838.6 hPa SW 9 km/h 4.7 km/h 76 % 0 mm
01:19 -13.5 °C -15.5 °C 34838.6 hPa South 6 km/h 4.7 km/h 78 % 0 mm
01:24 -13.5 °C -15.5 °C 34838.6 hPa SW 11.9 km/h 7.6 km/h 78 % 0 mm
01:29 -13.4 °C -15.4 °C 34838.6 hPa East 8 km/h 7.6 km/h 78 % 0 mm
01:34 -13.4 °C -15.4 °C 34838.6 hPa West 8 km/h 5.1 km/h 78 % 0 mm
01:39 -13.4 °C -15.4 °C 34838.6 hPa WSW 6 km/h 3.1 km/h 78 % 0 mm
01:44 -13.3 °C -15.3 °C 34838.6 hPa NNE 6 km/h 4.2 km/h 78 % 0 mm
01:49 -13.3 °C -15.3 °C 34838.6 hPa West 20.9 km/h 8 km/h 78 % 0 mm
01:54 -13.3 °C -15.3 °C 34838.6 hPa SSW 9 km/h 5.6 km/h 78 % 0 mm
01:59 -13.2 °C -15.1 °C 34804.7 hPa SE 6 km/h 4.7 km/h 79 % 0 mm
02:04 -13.2 °C -15.1 °C 34804.7 hPa SW 19.2 km/h 11.1 km/h 79 % 0 mm
02:09 -13.2 °C -15.1 °C 34804.7 hPa WSW 9 km/h 6.8 km/h 79 % 0 mm
02:14 -13.1 °C -15.1 °C 34770.8 hPa ESE 6 km/h 2.3 km/h 79 % 0 mm
02:19 -13.1 °C -14.9 °C 34770.8 hPa NNE 6 km/h 2.3 km/h 79 % 0 mm
02:24 -13.1 °C -14.9 °C 34770.8 hPa South 6.8 km/h 7.6 km/h 79 % 0 mm
02:29 -13 °C -14.9 °C 34770.8 hPa West 9 km/h 5.6 km/h 79 % 0 mm
02:34 -12.9 °C -14.8 °C 34770.8 hPa SSW 8.5 km/h 6.8 km/h 79 % 0 mm
02:39 -12.9 °C -14.8 °C 34770.8 hPa West 20.9 km/h 9.3 km/h 79 % 0 mm
02:44 -12.8 °C -14.8 °C 34770.8 hPa West 20.9 km/h 11.6 km/h 79 % 0 mm
02:49 -12.7 °C -14.8 °C 34770.8 hPa WSW 20.9 km/h 13.5 km/h 78 % 0 mm
02:54 -12.6 °C -14.6 °C 34770.8 hPa WSW 20.9 km/h 9.8 km/h 78 % 0 mm
02:59 -12.5 °C -14.6 °C 34770.8 hPa WSW 17.9 km/h 11.1 km/h 78 % 0 mm
03:04 -12.4 °C -14.5 °C 34770.8 hPa WSW 24.3 km/h 13.5 km/h 78 % 0 mm
03:09 -12.3 °C -14.3 °C 34770.8 hPa West 32.8 km/h 12.2 km/h 78 % 0 mm
03:14 -12.2 °C -14.3 °C 34770.8 hPa West 20.9 km/h 12.2 km/h 78 % 0 mm
03:14 -12.2 °C -14.3 °C 34770.8 hPa West 20.9 km/h 11.1 km/h 78 % 0 mm
03:28 -12 °C -14.1 °C 34737 hPa WSW 17.9 km/h 15.3 km/h 78 % 0 mm
03:34 -11.9 °C -13.9 °C 34737 hPa West 20.9 km/h 11.1 km/h 78 % 0 mm
03:39 -11.8 °C -13.9 °C 34737 hPa West 32.8 km/h 21.6 km/h 78 % 0 mm
03:44 -11.8 °C -13.8 °C 34703.1 hPa West 24.3 km/h 18.3 km/h 78 % 0 mm
03:49 -11.7 °C -13.8 °C 34703.1 hPa WSW 23.8 km/h 16.1 km/h 78 % 0 mm
03:54 -11.7 °C -13.7 °C 34703.1 hPa West 32.8 km/h 19.6 km/h 78 % 0 mm
03:59 -11.6 °C -13.7 °C 34703.1 hPa West 29.8 km/h 18.3 km/h 78 % 0 mm
04:04 -11.6 °C -13.6 °C 34703.1 hPa NW 23.8 km/h 11.1 km/h 78 % 0 mm
04:09 -11.6 °C -13.6 °C 34703.1 hPa WSW 41.7 km/h 19.6 km/h 78 % 0 mm
04:14 -11.5 °C -13.6 °C 34703.1 hPa West 23.8 km/h 21.6 km/h 78 % 0 mm
04:19 -11.5 °C -13.6 °C 34703.1 hPa West 29.8 km/h 19.6 km/h 78 % 0 mm
04:24 -11.4 °C -13.5 °C 34703.1 hPa West 35.7 km/h 22 km/h 78 % 0 mm
04:29 -11.4 °C -13.5 °C 34703.1 hPa West 32.8 km/h 23.8 km/h 78 % 0 mm
04:34 -11.4 °C -13.4 °C 34703.1 hPa WSW 29.8 km/h 21.6 km/h 78 % 0 mm
04:39 -11.4 °C -13.4 °C 34703.1 hPa SW 38.8 km/h 21.6 km/h 78 % 0 mm
04:44 -11.4 °C -13.4 °C 34669.3 hPa WSW 25.9 km/h 22.5 km/h 78 % 0 mm
04:49 -11.3 °C -13.4 °C 34669.3 hPa WSW 26.9 km/h 13.5 km/h 78 % 0 mm
04:54 -11.3 °C -13.6 °C 34669.3 hPa West 22.5 km/h 20.9 km/h 76 % 0 mm
04:59 -11.3 °C -13.6 °C 34669.3 hPa WSW 32.8 km/h 19.6 km/h 76 % 0 mm
05:04 -11.3 °C -13.6 °C 34669.3 hPa WSW 29.8 km/h 22.5 km/h 76 % 0 mm
05:09 -11.3 °C -13.6 °C 34669.3 hPa West 26.9 km/h 17.4 km/h 76 % 0 mm
05:14 -11.3 °C -13.6 °C 34669.3 hPa West 38.8 km/h 21.6 km/h 76 % 0 mm
05:19 -11.3 °C -13.6 °C 34669.3 hPa West 29.8 km/h 16.6 km/h 76 % 0 mm
05:24 -11.3 °C -13.6 °C 34669.3 hPa WSW 34.9 km/h 20.3 km/h 76 % 0 mm
05:29 -11.3 °C -13.6 °C 34635.4 hPa WSW 35.4 km/h 23.3 km/h 76 % 0 mm
05:34 -11.3 °C -13.6 °C 34635.4 hPa SW 26.9 km/h 17.9 km/h 76 % 0 mm
05:39 -11.3 °C -13.6 °C 34635.4 hPa WNW 41.7 km/h 23.3 km/h 76 % 0 mm
05:44 -11.2 °C -13.5 °C 34635.4 hPa West 38.8 km/h 30.1 km/h 76 % 0 mm
05:49 -11.2 °C -13.5 °C 34635.4 hPa WSW 44.7 km/h 34.9 km/h 76 % 0 mm
05:54 -11.2 °C -13.5 °C 34635.4 hPa WNW 32.8 km/h 26.4 km/h 76 % 0 mm
05:59 -11.2 °C -13.5 °C 34635.4 hPa West 35.7 km/h 25.1 km/h 76 % 0 mm
06:04 -11.2 °C -13.6 °C 34635.4 hPa West 33.2 km/h 25.1 km/h 75 % 0 mm
06:09 -11.2 °C -13.6 °C 34635.4 hPa WSW 29.8 km/h 17.9 km/h 75 % 0 mm
06:14 -11.2 °C -13.6 °C 34669.3 hPa WNW 20.9 km/h 21.6 km/h 75 % 0 mm
06:19 -11.2 °C -13.6 °C 34669.3 hPa SW 32.8 km/h 18.3 km/h 75 % 0 mm
06:24 -11.2 °C -13.6 °C 34669.3 hPa West 38.8 km/h 17.4 km/h 75 % 0 mm
06:29 -11.2 °C -13.6 °C 34635.4 hPa WSW 20.9 km/h 16.6 km/h 75 % 0 mm
06:33 -11.2 °C -13.6 °C 34635.4 hPa WSW 29.8 km/h 19.6 km/h 75 % 0 mm
06:39 -11.2 °C -13.6 °C 34635.4 hPa West 41.7 km/h 27.2 km/h 75 % 0 mm
06:44 -11.2 °C -13.6 °C 34601.5 hPa WSW 35.7 km/h 22.5 km/h 75 % 0 mm
06:49 -11.1 °C -13.5 °C 34601.5 hPa West 29.8 km/h 22 km/h 75 % 0 mm
06:54 -11.1 °C -13.5 °C 34601.5 hPa WSW 35.7 km/h 18.3 km/h 75 % 0 mm
06:59 -11.1 °C -13.5 °C 34601.5 hPa WSW 29.8 km/h 16.6 km/h 75 % 0 mm
07:04 -11.1 °C -13.5 °C 34601.5 hPa SW 23.8 km/h 16.6 km/h 75 % 0 mm
07:09 -11.1 °C -13.4 °C 34601.5 hPa WSW 43 km/h 34.1 km/h 76 % 0 mm
07:14 -11.1 °C -13.4 °C 34567.7 hPa WSW 23.8 km/h 21.6 km/h 76 % 0 mm
07:19 -11.1 °C -13.4 °C 34567.7 hPa WSW 25.4 km/h 19.2 km/h 76 % 0 mm
07:24 -11.1 °C -13.4 °C 34567.7 hPa West 29.8 km/h 22 km/h 76 % 0 mm
07:29 -11.1 °C -13.4 °C 34567.7 hPa SW 29.8 km/h 23.8 km/h 76 % 0 mm
07:34 -11.1 °C -13.3 °C 34567.7 hPa West 35.7 km/h 25.1 km/h 76 % 0 mm
07:39 -11.1 °C -13.3 °C 34567.7 hPa West 38.8 km/h 23.3 km/h 76 % 0 mm
Weerstation Grootegast
Gegevens verzameld door Weather Underground - 2.25 mb

Script ontwikkeld door  Jim McMurry - jmcmurry@mwt.net Aangepast voor de template door  Wim van der Kuil - Leuven-Template.eu